Savannah, GA

3:26 AM EDT on July 22, 2017 (GMT -0400)
Savannah International

Weather History for KSAV - January, 2012

Change the Weather History Date:

Tuesday, January 10, 2012

  Actual Average Record
Temperature  
Mean Temperature 60 °F 49 °F  
Max Temperature 73 °F 60 °F 81 °F (1949)
Min Temperature 47 °F 38 °F 12 °F (1970)
Degree Days  
Heating Degree Days 5 16  
Month to date heating degree days 131 160  
Since 1 July heating degree days 681 850  
Cooling Degree Days 0 0  
Month to date cooling degree days 0 0  
Year to date cooling degree days 0 0  
Growing Degree Days 10 (Base 50)    
Moisture  
Dew Point 51 °F    
Average Humidity 73    
Maximum Humidity 100    
Minimum Humidity 46    
Precipitation  
Precipitation T in 0.12 in 1.20 in (1967)
Month to date precipitation 0.02 1.07  
Year to date precipitation 0.02 1.07  
Snow  
Snow 0.00 in 0.00 in - ()
Month to date snowfall 0.0  
Since 1 July snowfall 0.0 0.2  
Snow Depth 0.00 in    
Sea Level Pressure  
Sea Level Pressure 30.05 in    
Wind  
Wind Speed 3 mph (South)    
Max Wind Speed 14 mph    
Max Gust Speed 16 mph    
Visibility 10 miles    
Events Fog    
T = Trace of Precipitation, MM = Missing Value Source: NWS Daily Summary

Daily Weather History Graph

Daily Weather History Graph

Search for Another Location

Airport or City:

Trip Planner

Search our weather history database for the weather conditions in past years. The results will help you decide how hot, cold, wet, or windy it might be!

Date:

Astronomy

Jan. 10, 2012 Rise Set
Actual Time 7:26 AM EST 5:38 PM EST
Civil Twilight 6:59 AM EST 6:04 PM EST
Nautical Twilight 6:29 AM EST 6:35 PM EST
Astronomical Twilight 5:59 AM EST 7:04 PM EST
Moon 7:20 PM EST (1/10) 8:09 AM EST (1/10)
Length of Visible Light 11h 04m
Length of Day
10h 11m
Full, 98% of the Moon is Illuminated
Jan 10
Full
Jan 16
Last Quarter
Jan 23
New
Jan 30
First Quarter
Feb 7
Full

Hourly Weather History & Observations

Time (EST) Temp. Dew Point Humidity Pressure Visibility Wind Dir Wind Speed Gust Speed Precip Events Conditions
12:53 AM 52.0 °F 48.0 °F 86% 30.11 in 10.0 mi Calm Calm - N/A   Clear
1:53 AM 51.1 °F 48.0 °F 89% 30.10 in 10.0 mi SSW 4.6 mph - N/A   Clear
2:53 AM 52.0 °F 48.9 °F 89% 30.10 in 10.0 mi West 3.5 mph - N/A   Clear
3:53 AM 48.9 °F 46.9 °F 93% 30.09 in 9.0 mi Calm Calm - N/A   Scattered Clouds
4:53 AM 48.9 °F 48.0 °F 97% 30.09 in 6.0 mi Calm Calm - N/A   Mostly Cloudy
5:53 AM 48.9 °F 46.9 °F 93% 30.08 in 9.0 mi Calm Calm - N/A   Mostly Cloudy
6:53 AM 48.0 °F 46.0 °F 93% 30.09 in 8.0 mi Calm Calm - N/A   Scattered Clouds
7:53 AM 46.9 °F 45.0 °F 93% 30.10 in 8.0 mi Calm Calm - N/A Fog Patches of Fog
8:53 AM 54.0 °F 51.1 °F 90% 30.12 in 9.0 mi Calm Calm - N/A   Mostly Cloudy
9:53 AM 61.0 °F 54.0 °F 78% 30.11 in 10.0 mi Calm Calm - N/A   Mostly Cloudy
10:53 AM 66.9 °F 54.0 °F 63% 30.10 in 10.0 mi SW 4.6 mph - N/A   Mostly Cloudy
11:53 AM 72.0 °F 51.1 °F 48% 30.07 in 10.0 mi SSW 9.2 mph - N/A   Mostly Cloudy
12:53 PM 72.0 °F 52.0 °F 49% 30.04 in 10.0 mi WSW 8.1 mph - N/A   Mostly Cloudy
1:53 PM 73.0 °F 52.0 °F 48% 30.01 in 10.0 mi SW 6.9 mph - N/A   Mostly Cloudy
2:53 PM 72.0 °F 51.1 °F 48% 30.00 in 10.0 mi SW 9.2 mph - N/A   Overcast
3:53 PM 71.1 °F 51.1 °F 49% 29.99 in 10.0 mi SW 5.8 mph - N/A   Overcast
4:53 PM 68.0 °F 54.0 °F 61% 30.00 in 10.0 mi Calm Calm - 0.00 in   Overcast
5:53 PM 66.0 °F 53.1 °F 63% 30.01 in 10.0 mi SE 3.5 mph - N/A   Overcast
6:53 PM 64.0 °F 55.0 °F 73% 30.00 in 10.0 mi Calm Calm - 0.00 in   Overcast
7:53 PM 62.1 °F 55.0 °F 78% 30.00 in 10.0 mi ESE 4.6 mph - N/A   Overcast
8:53 PM 61.0 °F 55.0 °F 81% 30.01 in 10.0 mi South 3.5 mph - N/A   Overcast
9:53 PM 60.1 °F 53.1 °F 78% 29.99 in 10.0 mi ESE 3.5 mph - N/A   Overcast
10:53 PM 59.0 °F 53.1 °F 81% 29.97 in 10.0 mi East 9.2 mph - N/A   Overcast
11:53 PM 57.9 °F 53.1 °F 84% 29.95 in 10.0 mi East 5.8 mph - N/A   Overcast